This is the latest recevied weather packets stored in our database for station/object N9EA. If no packets are shown the sender has not sent any weather packets the latest 10 day(s).
| Time | Temp. | Humidity | Pressure | Rain* | Wind** | Luminosity | Snow |
|---|---|---|---|---|---|---|---|
| 1778106861 | 12.78° C | 36% | 1015 hPa | 0 mm | - | 71 W/m² | - |
| 1778106559 | 13.33° C | 35% | 1015.2 hPa | 0 mm | - | 87 W/m² | - |
| 1778106255 | 12.78° C | 36% | 1015.1 hPa | 0 mm | - | 337 W/m² | - |
| 1778105952 | 12.78° C | 37% | 1014.9 hPa | 0 mm | - | 133 W/m² | - |
| 1778105649 | 12.78° C | 37% | 1014.8 hPa | 0 mm | - | 122 W/m² | - |
| 1778105347 | 12.22° C | 37% | 1015.1 hPa | 0 mm | - | 116 W/m² | - |
| 1778105042 | 12.78° C | 37% | 1014.9 hPa | 0 mm | - | 118 W/m² | - |
| 1778104739 | 12.78° C | 37% | 1014.8 hPa | 0 mm | - | 156 W/m² | - |
| 1778104435 | 13.89° C | 36% | 1014.7 hPa | 0 mm | - | 141 W/m² | - |
| 1778104131 | 13.33° C | 37% | 1014.8 hPa | 0 mm | - | 348 W/m² | - |
| 1778103828 | 13.33° C | 37% | 1014.9 hPa | 0 mm | - | 248 W/m² | - |
| 1778103526 | 12.78° C | 37% | 1014.9 hPa | 0 mm | - | 179 W/m² | - |
| 1778103223 | 12.78° C | 39% | 1014.9 hPa | 0 mm | - | 352 W/m² | - |
| 1778102920 | 12.78° C | 37% | 1015 hPa | 0 mm | - | 220 W/m² | - |
| 1778102616 | 12.78° C | 37% | 1015 hPa | 0 mm | - | 229 W/m² | - |
| 1778102311 | 12.78° C | 37% | 1014.9 hPa | 0 mm | - | 217 W/m² | - |
| 1778102007 | 12.78° C | 37% | 1014.9 hPa | 0 mm | - | 204 W/m² | - |
| 1778101705 | 12.78° C | 36% | 1015 hPa | 0 mm | - | 371 W/m² | - |
| 1778101401 | 13.33° C | 37% | 1015 hPa | 0 mm | - | 261 W/m² | - |
| 1778101099 | 13.89° C | 36% | 1014.9 hPa | 0 mm | - | 212 W/m² | - |
| 1778100795 | 13.33° C | 36% | 1015 hPa | 0 mm | - | 659 W/m² | - |
| 1778100491 | 12.78° C | 38% | 1014.9 hPa | 0 mm | - | 252 W/m² | - |
| 1778100189 | 13.33° C | 37% | 1015 hPa | 0 mm | - | 709 W/m² | - |
| 1778099887 | 12.78° C | 38% | 1015 hPa | 0 mm | - | 278 W/m² | - |
| 1778099584 | 13.89° C | 36% | 1015.1 hPa | 0 mm | - | 187 W/m² | - |
* Rain latest hour (hover to see other rain measurements)
** Current wind speed in m/s (hover to see current wind gust speed)